This is the latest recevied weather packets stored in our database for station/object SP5IZJ-2. If no packets are shown the sender has not sent any weather packets the latest 10 day(s).
| Time | Temp. | Humidity | Pressure | Rain* | Wind** | Luminosity | Snow |
|---|---|---|---|---|---|---|---|
| 1777906648 | 29.44° C | 27% | 1002.7 hPa | 0 mm | - | - | - |
| 1777902872 | 28.89° C | 27% | 1003.1 hPa | 0 mm | - | - | - |
| 1777902032 | 28.89° C | 28% | 1003.2 hPa | 0 mm | - | - | - |
| 1777900364 | 29.44° C | 29% | 1003.6 hPa | 0 mm | - | - | - |
| 1777899511 | 28.33° C | 29% | 1003.8 hPa | 0 mm | - | - | - |
| 1777896992 | 28.33° C | 30% | 1004 hPa | 0 mm | - | - | - |
| 1777893214 | 27.78° C | 30% | 1004.6 hPa | 0 mm | - | - | - |
| 1777891112 | 26.67° C | 31% | 1004.8 hPa | 0 mm | - | - | - |
| 1777886921 | 26.11° C | 31% | 1005.5 hPa | 0 mm | - | - | - |
| 1777885235 | 25° C | 33% | 1005.7 hPa | 0 mm | - | - | - |
| 1777881876 | 22.78° C | 34% | 1005.9 hPa | 0 mm | - | - | - |
| 1777881041 | 22.78° C | 34% | 1005.7 hPa | 0 mm | - | - | - |
| 1777880617 | 22.78° C | 35% | 1005.9 hPa | 0 mm | - | - | - |
| 1777879357 | 21.67° C | 36% | 1005.6 hPa | 0 mm | - | - | - |
| 1777878518 | 21.11° C | 37% | 1005.8 hPa | 0 mm | - | - | - |
| 1777878098 | 21.11° C | 37% | 1005.6 hPa | 0 mm | - | - | - |
| 1777877678 | 20.56° C | 40% | 1005.5 hPa | 0 mm | - | - | - |
| 1777876838 | 18.33° C | 41% | 1005.8 hPa | 0 mm | - | - | - |
| 1777876418 | 18.33° C | 42% | 1005.8 hPa | 0 mm | - | - | - |
| 1777876001 | 18.33° C | 41% | 1005.6 hPa | 0 mm | - | - | - |
| 1777875163 | 18.33° C | 41% | 1005.6 hPa | 0 mm | - | - | - |
| 1777874739 | 18.33° C | 41% | 1005.6 hPa | 0 mm | - | - | - |
| 1777873899 | 18.33° C | 42% | 1005.6 hPa | 0 mm | - | - | - |
| 1777873480 | 17.78° C | 42% | 1005.5 hPa | 0 mm | - | - | - |
| 1777870541 | 15.56° C | 47% | 1005.7 hPa | 0 mm | - | - | - |
* Rain latest hour (hover to see other rain measurements)
** Current wind speed in m/s (hover to see current wind gust speed)